Location: Edisto_Beach
(32.4790°N, 80.3350°W)
Time: 05:35:03
(UTC-04:00)

Amateur Radio Satellites - All Passes

Search period start: 28 June 2016 05:05
Search period end: 29 June 2016 05:05
Location: Edisto_Beach, 32.4790°N, 80.3350°W

Satellite Date Start Highest point End Downlink Frequencies (MHz)
Time Altitude Azimuth
AIST 1 28 Jun 05:09:36 05:13:51 84° 80° (E) 05:18:07
CUBESAT XI-V 28 Jun 05:12:07 05:15:48 23° 70° (ENE) 05:19:28 437.345
AIST 2 28 Jun 05:14:49 05:18:49 55° 115° (ESE) 05:22:51 435.215
HORYU 2 28 Jun 05:22:22 05:25:42 20° 96° (E) 05:29:02 437.375
MOZHAYETS 4 28 Jun 05:23:15 05:27:04 25° 264° (W) 05:30:55
KKS-1 28 Jun 05:39:20 05:41:38 14° 266° (W) 05:43:55 437.445
AO-7 28 Jun 05:40:52 05:49:08 67° 291° (WNW) 05:57:23 29.400- 29.500
PHONESAT 2.4 28 Jun 06:02:07 06:04:17 18° 143° (SE) 06:06:26 2401.200-2431.200
GONETS M04 28 Jun 06:10:49 06:19:22 56° 80° (E) 06:27:54
STARS 28 Jun 06:14:13 06:15:32 11° 267° (W) 06:16:51 437.465
NOAA 18 28 Jun 06:14:15 06:15:31 11° 92° (E) 06:16:46 137.9125
Cubesat XI-IV 28 Jun 06:23:52 06:26:05 13° 93° (E) 06:28:19 437.490
Cosmos 2499 28 Jun 06:31:55 06:40:22 51° 79° (E) 06:48:14 435.465 / 435.565
CUBESAT XI-V 28 Jun 06:48:58 06:52:59 28° 263° (W) 06:57:01 437.345
LilacSat-2 28 Jun 06:53:12 06:56:14 22° 96° (E) 06:59:16 437.200
AIST 2 28 Jun 06:56:04 06:57:37 12° 310° (NW) 06:59:10 435.215
CUTE-I 28 Jun 06:56:21 07:00:58 29° 97° (E) 07:05:34 437.470
HORYU 2 28 Jun 06:58:21 07:02:12 29° 289° (WNW) 07:06:03 437.375
BRITE-PL 28 Jun 07:03:52 07:07:51 45° 100° (E) 07:11:55 437.365/2234.400
AO-85 28 Jun 07:15:26 07:19:35 39° 57° (ENE) 07:23:24 145.980
NOAA 15 28 Jun 07:25:59 07:31:15 84° 105° (ESE) 07:36:29 137.62
PHONESAT 2.4 28 Jun 07:37:39 07:40:40 57° 336° (NNW) 07:43:43 2401.200-2431.200
AO-7 28 Jun 07:37:55 07:40:19 11° 308° (NW) 07:42:43 29.400- 29.500
GOMX 1 28 Jun 07:40:10 07:44:18 52° 100° (E) 07:48:38 467.674
NOAA 18 28 Jun 07:51:03 07:56:35 75° 286° (WNW) 08:02:07 137.9125
STRAND 1 28 Jun 07:54:58 08:00:05 86° 78° (ENE) 08:05:16 437.568
CUSAT 1 28 Jun 07:57:26 08:05:22 70° 96° (E) 08:12:19 437.405
Cubesat XI-IV 28 Jun 08:01:10 08:06:29 63° 286° (WNW) 08:11:47 437.490
CINEMA 3 28 Jun 08:07:21 08:09:15 12° 93° (E) 08:11:10 145.822/145.860
GONETS M04 28 Jun 08:08:49 08:15:31 26° 276° (W) 08:22:16
DANDE 28 Jun 08:14:36 08:22:31 49° 91° (E) 08:30:10 436.750
Cosmos 2499 28 Jun 08:25:55 08:32:54 28° 276° (W) 08:39:34 435.465 / 435.565
LilacSat-2 28 Jun 08:27:32 08:30:22 20° 289° (WNW) 08:33:12 437.200
PRISM 28 Jun 08:29:25 08:32:49 25° 71° (ENE) 08:36:13 437.425
ISS 28 Jun 08:32:36 08:35:42 44° 132° (SE) 08:38:49 145.825
CUTE-I 28 Jun 08:36:20 08:40:53 29° 291° (WNW) 08:45:24 437.470
DOVE 4 28 Jun 08:42:56 08:47:16 65° 284° (WNW) 08:51:50 437.250
BRITE-PL 28 Jun 08:45:03 08:45:56 11° 293° (WNW) 08:46:50 437.365/2234.400
AO-85 28 Jun 08:57:32 08:59:30 13° 254° (WSW) 09:01:24 145.980
CANX-2 28 Jun 09:08:00 09:12:15 63° 100° (E) 09:16:28 2200.000
COMPASS 1 28 Jun 09:12:10 09:15:44 27° 97° (E) 09:19:16 437.405
PHONESAT 2.4 28 Jun 09:15:19 09:17:40 20° 352° (N) 09:20:01 2401.200-2431.200
GOMX 1 28 Jun 09:21:27 09:21:59 10° 292° (WNW) 09:22:31 467.674
CUTE 1.7 + AOD 2 28 Jun 09:28:04 09:32:22 84° 285° (WNW) 09:36:37 437.475
HO-68 28 Jun 09:28:15 09:35:29 80° 104° (ESE) 09:42:41 435.675
SEEDS 28 Jun 09:32:56 09:37:10 77° 101° (E) 09:41:22 437.485
CINEMA 3 28 Jun 09:42:04 09:46:31 51° 285° (WNW) 09:51:09 145.822/145.860
CUSAT 1 28 Jun 09:42:13 09:47:38 20° 286° (WNW) 09:52:38 437.405
CUBEBUG 2 28 Jun 09:42:21 09:46:49 44° 99° (E) 09:51:19 437.445
ANTELSAT 28 Jun 09:51:23 09:52:57 12° 66° (ENE) 09:54:32 437.575/2403.000
DANDE 28 Jun 09:58:01 10:05:23 34° 285° (WNW) 10:12:31 436.750
AUBIESAT-1 28 Jun 10:00:04 10:03:43 32° 104° (ESE) 10:07:34 437.475
PRISM 28 Jun 10:04:58 10:08:02 20° 264° (W) 10:11:07 437.425
ISS 28 Jun 10:10:15 10:12:18 15° 327° (NNW) 10:14:22 145.825
ZACube-1 28 Jun 10:10:47 10:15:04 40° 98° (E) 10:19:23 437.345
AAUSAT CUBESAT 2 28 Jun 10:13:26 10:17:33 61° 283° (WNW) 10:21:37 437.432
Oscar 11 28 Jun 10:21:32 10:25:50 57° 100° (E) 10:30:06 145.826/435.025
FUNcube-1 28 Jun 10:28:25 10:32:57 61° 102° (ESE) 10:37:28 145.935
DELFI C3 28 Jun 10:29:08 10:32:32 27° 97° (E) 10:35:55 145.870
UWE-3 28 Jun 10:30:35 10:35:12 75° 283° (WNW) 10:39:51 435.000/436.395/437.385
M-CUBED/EXP-1 PRIME 28 Jun 10:38:44 10:42:40 64° 288° (WNW) 10:46:55 437.505
TIGRISAT 28 Jun 10:40:18 10:44:21 43° 74° (ENE) 10:48:28 435.000
UNISAT 6 28 Jun 10:45:10 10:49:19 54° 75° (ENE) 10:53:35 437.425
COMPASS 1 28 Jun 10:48:09 10:51:03 18° 290° (WNW) 10:53:57 437.405
PHONESAT 2.4 28 Jun 10:52:32 10:54:55 20° 9° (N) 10:57:19 2401.200-2431.200
PCSat 28 Jun 10:53:21 10:53:29 10° 48° (NE) 10:53:37 145.827
NANOSAT C BR1 28 Jun 11:05:36 11:07:09 12° 67° (ENE) 11:08:42 145.865
QB50P1 28 Jun 11:07:47 11:09:52 14° 68° (ENE) 11:11:58 145.935-145.965
POPSAT HIP 1 28 Jun 11:10:45 11:13:02 15° 68° (ENE) 11:15:20 437.405
HO-68 28 Jun 11:18:11 11:22:19 16° 300° (WNW) 11:26:28 435.675
CUBEBUG 2 28 Jun 11:20:26 11:23:01 15° 292° (WNW) 11:25:39 437.445
QB50P2 28 Jun 11:21:56 11:25:09 22° 70° (ENE) 11:28:22 145.880/145.840
POLYITAN 1 28 Jun 11:24:32 11:27:46 22° 71° (ENE) 11:31:01 437.675
DUCHIFAT 1 28 Jun 11:24:47 11:27:46 19° 70° (ENE) 11:30:45 145.980
ANTELSAT 28 Jun 11:25:04 11:29:10 47° 261° (W) 11:33:23 437.575/2403.000
HUMSAT D 28 Jun 11:27:15 11:31:33 67° 101° (E) 11:35:48 437.325/437.525
Cosmos 2491 28 Jun 11:33:30 11:40:28 26° 73° (ENE) 11:47:24 435.465 / 435.565
AUBIESAT-1 28 Jun 11:35:19 11:37:57 17° 294° (WNW) 11:40:43 437.475
RS-15 28 Jun 11:40:38 11:51:17 51° 109° (ESE) 12:02:28 29.354- 29.394
ZACube-1 28 Jun 11:48:15 11:50:59 16° 291° (WNW) 11:53:43 437.345
Oscar 11 28 Jun 12:01:05 12:01:24 10° 294° (WNW) 12:01:44 145.826/435.025
DELFI C3 28 Jun 12:04:35 12:07:08 17° 290° (WNW) 12:09:41 145.870
CUBEBUG 1 28 Jun 12:07:03 12:09:58 18° 95° (E) 12:12:53 437.445
FUNcube-1 28 Jun 12:07:46 12:08:36 10° 294° (WNW) 12:09:26 145.935
VELOX 1 28 Jun 12:14:03 12:17:14 19° 96° (E) 12:20:24 145.980
TIGRISAT 28 Jun 12:19:43 12:21:14 12° 267° (W) 12:22:47 435.000
BUGSAT 1 28 Jun 12:21:16 12:25:00 39° 74° (ENE) 12:28:45 437.445
BEESAT 3 28 Jun 12:23:28 12:27:19 50° 60° (ENE) 12:31:09 437.485
PHONESAT 2.4 28 Jun 12:28:49 12:31:53 64° 25° (NNE) 12:34:56 2401.200-2431.200
PCSat 28 Jun 12:32:15 12:37:42 81° 65° (ENE) 12:43:06 145.827
NANOSAT C BR1 28 Jun 12:38:28 12:42:26 44° 261° (W) 12:46:27 145.865
QB50P1 28 Jun 12:41:23 12:45:17 38° 261° (W) 12:49:12 145.935-145.965
POPSAT HIP 1 28 Jun 12:44:39 12:48:29 35° 262° (W) 12:52:20 437.405
50 SAT 28 Jun 12:48:15 12:51:54 60° 101° (E) 12:55:30 437.505
ESTCUBE 1 28 Jun 12:48:25 12:52:56 90° 283° (WNW) 12:57:25 437.505/2401.250
AISAT 28 Jun 12:53:51 12:58:13 65° 102° (ESE) 13:02:34 437.250
UKube-1 28 Jun 12:55:53 12:59:52 36° 99° (E) 13:03:50 .
QB50P2 28 Jun 12:57:27 13:00:48 23° 264° (W) 13:04:11 145.880/145.840
SPROUT 28 Jun 12:58:14 13:01:52 27° 97° (E) 13:05:30 437.525
DUCHIFAT 1 28 Jun 12:59:46 13:03:15 26° 263° (W) 13:06:44 145.980
POLYITAN 1 28 Jun 13:00:08 13:03:26 22° 264° (W) 13:06:45 437.675
JAS-2 28 Jun 13:00:08 13:07:48 66° 74° (ENE) 13:14:54 435.910
BEESAT 2 28 Jun 13:00:38 13:04:37 75° 62° (ENE) 13:08:35 435.950
YUBILEINY 28 Jun 13:08:15 13:16:39 57° 91° (E) 13:25:07 435.215
DX 1 28 Jun 13:14:57 13:19:17 84° 100° (E) 13:23:38 434.975-435.025
Cosmos 2491 28 Jun 13:29:13 13:37:38 56° 270° (W) 13:46:04 435.465 / 435.565
Oscar 19 28 Jun 13:32:39 13:37:24 39° 72° (ENE) 13:42:09 437.125/150
CUBEBUG 1 28 Jun 13:42:29 13:46:15 30° 288° (WNW) 13:50:01 437.445
AIST 2 28 Jun 13:43:02 13:43:48 10° 49° (NE) 13:44:35 435.215
Gurwin Techsat 1B 28 Jun 13:48:20 13:52:27 23° 68° (ENE) 13:56:34 435.225
VELOX 1 28 Jun 13:49:54 13:53:39 28° 288° (WNW) 13:57:24 145.980
RS-15 28 Jun 13:53:13 14:03:49 43° 309° (NW) 14:15:02 29.354- 29.394
O/OREOS (USA 219) 28 Jun 13:55:40 14:00:06 64° 254° (WSW) 14:04:33 437.305
BUGSAT 1 28 Jun 13:59:12 14:00:31 11° 266° (W) 14:01:48 437.445
PHONESAT 2.4 28 Jun 14:06:16 14:08:15 16° 218° (SW) 14:10:13 2401.200-2431.200
TISAT 1 28 Jun 14:19:02 14:23:10 58° 100° (E) 14:27:20 437.305
Cosmos 2504 28 Jun 14:25:20 14:33:00 54° 90° (E) 14:41:15 435.465 / 435.565
UKube-1 28 Jun 14:33:06 14:35:34 15° 292° (WNW) 14:38:02 .
SPROUT 28 Jun 14:34:30 14:37:36 20° 290° (WNW) 14:40:44 437.525
SWISSCUBE 28 Jun 14:40:15 14:43:32 18° 95° (E) 14:46:47 437.505
AO-7 28 Jun 14:44:43 14:50:36 22° 58° (ENE) 14:56:28 29.400- 29.500
JAS-2 28 Jun 14:47:29 14:52:58 21° 266° (W) 14:58:15 435.910
BEESAT 28 Jun 15:04:46 15:09:00 31° 98° (E) 15:13:11 436.000
ITUPSAT 1 28 Jun 15:05:40 15:09:55 31° 98° (E) 15:14:08 437.325
YUBILEINY 28 Jun 15:06:54 15:13:47 26° 287° (WNW) 15:20:47 435.215
JUGNU 28 Jun 15:09:57 15:13:32 16° 167° (SSE) 15:17:08 437.505
Oscar 19 28 Jun 15:13:09 15:16:48 19° 265° (W) 15:20:26 437.125/150
AIST 2 28 Jun 15:18:33 15:22:41 65° 244° (WSW) 15:26:47 435.215
Gurwin Techsat 1B 28 Jun 15:27:20 15:32:08 35° 262° (W) 15:36:59 435.225
ITAMSAT 1 28 Jun 15:33:20 15:38:32 90° 101° (E) 15:43:47 435.822/435.867
SO-50 28 Jun 15:53:18 15:58:00 49° 114° (ESE) 16:02:43 436.795
KKS-1 28 Jun 15:58:45 15:59:56 11° 93° (E) 16:01:07 437.445
RS-15 28 Jun 16:15:53 16:20:57 13° 340° (NNW) 16:26:07 29.354- 29.394
SWISSCUBE 28 Jun 16:17:00 16:21:23 36° 288° (WNW) 16:25:42 437.505
HORYU 2 28 Jun 16:18:08 16:19:21 11° 66° (ENE) 16:20:36 437.375
Cosmos 2504 28 Jun 16:20:17 16:26:45 26° 288° (WNW) 16:33:37 435.465 / 435.565
SRMSAT 28 Jun 16:26:26 16:27:45 11° 162° (SSE) 16:29:05 437.500
STARS 28 Jun 16:30:35 16:32:29 12° 94° (E) 16:34:22 437.465
AO-7 28 Jun 16:34:12 16:42:30 74° 255° (WSW) 16:50:53 29.400- 29.500
ISS 28 Jun 16:39:58 16:43:14 73° 44° (NE) 16:46:28 145.825
BEESAT 28 Jun 16:42:55 16:46:32 22° 291° (WNW) 16:50:10 436.000
ITUPSAT 1 28 Jun 16:43:52 16:47:31 22° 291° (WNW) 16:51:09 437.325
JUGNU 28 Jun 16:57:18 17:01:57 23° 176° (S) 17:06:35 437.505
MOZHAYETS 4 28 Jun 17:21:53 17:26:32 77° 283° (WNW) 17:31:08
KKS-1 28 Jun 17:32:24 17:36:43 51° 286° (WNW) 17:41:01 437.445
AIST 1 28 Jun 17:33:48 17:38:05 62° 94° (E) 17:42:20
NOAA 18 28 Jun 17:35:16 17:38:10 15° 64° (ENE) 17:41:06 137.9125
SO-50 28 Jun 17:35:26 17:38:44 18° 309° (NW) 17:42:02 436.795
Cubesat XI-IV 28 Jun 17:41:30 17:44:16 14° 65° (ENE) 17:47:02 437.490
HORYU 2 28 Jun 17:51:04 17:55:23 54° 259° (W) 17:59:45 437.375
STARS 28 Jun 18:04:48 18:08:59 44° 287° (WNW) 18:13:10 437.465
BRITE-PL 28 Jun 18:09:44 18:14:26 36° 74° (ENE) 18:18:49 437.365/2234.400
SRMSAT 28 Jun 18:12:03 18:16:17 20° 171° (S) 18:20:30 437.500
CUTE-I 28 Jun 18:13:43 18:18:19 31° 70° (ENE) 18:22:59 437.470
RS-15 28 Jun 18:36:33 18:41:45 13° 20° (NNE) 18:46:57 29.354- 29.394
NOAA 15 28 Jun 18:41:18 18:46:36 85° 76° (ENE) 18:51:54 137.62
CUSAT 1 28 Jun 18:41:34 18:43:28 14° 71° (ENE) 18:45:12 437.405
GOMX 1 28 Jun 18:43:59 18:48:14 34° 74° (ENE) 18:52:14 467.674
JUGNU 28 Jun 18:45:53 18:50:24 22° 186° (S) 18:54:54 437.505
CUBESAT XI-V 28 Jun 18:49:21 18:53:58 79° 283° (WNW) 18:58:32 437.345
Cosmos 2499 28 Jun 19:01:43 19:09:21 46° 88° (E) 19:17:29 435.465 / 435.565
LilacSat-2 28 Jun 19:03:49 19:07:34 78° 259° (WSW) 19:11:23 437.200
DANDE 28 Jun 19:04:27 19:06:31 13° 65° (ENE) 19:08:22 436.750
GONETS M04 28 Jun 19:05:36 19:14:16 75° 93° (E) 19:22:56
NOAA 18 28 Jun 19:12:52 19:18:14 61° 258° (WSW) 19:23:40 137.9125
Cubesat XI-IV 28 Jun 19:18:30 19:23:45 60° 259° (W) 19:29:03 437.490
DOVE 4 28 Jun 19:43:58 19:48:21 73° 78° (ENE) 19:52:34 437.250
BRITE-PL 28 Jun 19:49:11 19:52:52 20° 264° (W) 19:56:24 437.365/2234.400
HO-68 28 Jun 19:52:04 19:58:29 37° 67° (ENE) 20:04:56 435.675
CUTE-I 28 Jun 19:53:51 19:58:17 27° 263° (W) 20:02:46 437.470
CANX-2 28 Jun 19:56:35 20:00:04 25° 71° (ENE) 20:03:34 2200.000
SRMSAT 28 Jun 20:00:12 20:04:52 24° 181° (S) 20:09:30 437.500
COMPASS 1 28 Jun 20:00:49 20:01:54 11° 67° (ENE) 20:02:59 437.405
STRAND 1 28 Jun 20:10:21 20:15:15 43° 100° (E) 20:20:06 437.568
CUTE 1.7 + AOD 2 28 Jun 20:16:05 20:19:59 36° 74° (ENE) 20:23:56 437.475
SEEDS 28 Jun 20:20:16 20:23:54 28° 72° (ENE) 20:27:34 437.485
GOMX 1 28 Jun 20:23:15 20:26:18 17° 264° (W) 20:29:16 467.674
CUSAT 1 28 Jun 20:24:24 20:25:14 11° 275° (W) 20:26:03 437.405
JUGNU 28 Jun 20:35:56 20:38:46 14° 196° (SSW) 20:41:36 437.505
CUBEBUG 2 28 Jun 20:37:06 20:40:05 19° 70° (ENE) 20:43:07 437.445
CINEMA 3 28 Jun 20:39:17 20:43:25 84° 79° (E) 20:47:35 145.822/145.860
AUBIESAT-1 28 Jun 20:44:00 20:45:50 14° 66° (ENE) 20:47:40 437.475
DANDE 28 Jun 20:45:56 20:49:37 27° 273° (W) 20:52:35 436.750
RS-15 28 Jun 20:47:34 20:59:04 42° 50° (NE) 21:10:22 29.354- 29.394
Cosmos 2499 28 Jun 20:55:26 21:02:34 32° 286° (WNW) 21:10:09 435.465 / 435.565
AAUSAT CUBESAT 2 28 Jun 20:58:46 21:02:45 45° 75° (ENE) 21:06:46 437.432
ZACube-1 28 Jun 21:03:19 21:06:01 17° 69° (ENE) 21:08:47 437.345
GONETS M04 28 Jun 21:06:10 21:11:50 19° 290° (WNW) 21:17:33
Oscar 11 28 Jun 21:12:09 21:15:40 24° 71° (ENE) 21:19:11 145.826/435.025
FUNcube-1 28 Jun 21:20:00 21:23:26 25° 71° (ENE) 21:26:55 145.935
M-CUBED/EXP-1 PRIME 28 Jun 21:21:53 21:25:09 70° 73° (ENE) 21:28:24 437.505
UWE-3 28 Jun 21:23:07 21:27:06 47° 75° (ENE) 21:31:11 435.000/436.395/437.385
AO-85 28 Jun 21:23:42 21:28:52 46° 113° (ESE) 21:33:59 145.980
CANX-2 28 Jun 21:32:34 21:35:49 21° 265° (W) 21:39:06 2200.000
COMPASS 1 28 Jun 21:32:53 21:36:58 49° 261° (W) 21:41:04 437.405
HO-68 28 Jun 21:39:44 21:46:05 35° 262° (W) 21:52:30 435.675
SRMSAT 28 Jun 21:49:26 21:53:26 19° 191° (S) 21:57:25 437.500
PRISM 28 Jun 21:49:46 21:53:51 77° 102° (ESE) 21:57:54 437.425
STRAND 1 28 Jun 21:50:35 21:54:02 18° 293° (WNW) 21:57:28 437.568
CUTE 1.7 + AOD 2 28 Jun 21:53:39 21:55:55 14° 267° (W) 21:58:12 437.475
SEEDS 28 Jun 21:56:39 21:59:34 18° 265° (W) 22:02:30 437.485
CUBEBUG 2 28 Jun 22:13:05 22:16:31 25° 264° (W) 22:20:01 437.445
HUMSAT D 28 Jun 22:14:26 22:17:48 24° 71° (ENE) 22:21:13 437.325/437.525
AUBIESAT-1 28 Jun 22:17:37 22:20:10 20° 258° (WSW) 22:22:42 437.475
AAUSAT CUBESAT 2 28 Jun 22:37:19 22:38:24 11° 267° (W) 22:39:31 437.432
TIGRISAT 28 Jun 22:37:30 22:40:05 15° 94° (E) 22:42:39 435.000
ZACube-1 28 Jun 22:38:21 22:42:02 30° 263° (W) 22:45:47 437.345
UNISAT 6 28 Jun 22:42:11 22:45:20 18° 95° (E) 22:48:30 437.425
DELFI C3 28 Jun 22:44:20 22:48:16 53° 260° (W) 22:52:14 145.870
Oscar 11 28 Jun 22:48:19 22:51:41 22° 264° (W) 22:55:04 145.826/435.025
FUNcube-1 28 Jun 22:56:32 22:59:36 20° 265° (W) 23:02:44 145.935
RS-15 28 Jun 23:00:00 23:11:51 56° 250° (WSW) 23:23:28 29.354- 29.394
AO-85 28 Jun 23:05:21 23:09:33 22° 307° (NW) 23:13:39 145.980
VELOX 1 28 Jun 23:09:30 23:10:14 10° 66° (ENE) 23:10:58 145.980
ANTELSAT 28 Jun 23:20:48 23:25:21 50° 100° (E) 23:29:54 437.575/2403.000
50 SAT 28 Jun 23:23:06 23:25:04 14° 69° (ENE) 23:27:03 437.505
YUBILEINY 28 Jun 23:25:20 23:31:45 22° 71° (ENE) 23:38:07 435.215
ESTCUBE 1 28 Jun 23:43:10 23:47:30 46° 74° (ENE) 23:51:51 437.505/2401.250
UKube-1 28 Jun 23:46:50 23:49:45 18° 69° (ENE) 23:52:39 .
AISAT 28 Jun 23:46:53 23:50:46 31° 72° (ENE) 23:54:40 437.250
SPROUT 28 Jun 23:49:21 23:50:56 12° 67° (ENE) 23:52:31 437.525
HUMSAT D 28 Jun 23:50:15 23:53:20 20° 265° (W) 23:56:28 437.325/437.525
DX 1 29 Jun 00:05:55 00:09:57 38° 73° (ENE) 00:13:58 434.975-435.025
TIGRISAT 29 Jun 00:12:27 00:16:52 43° 286° (WNW) 00:21:19 435.000
UNISAT 6 29 Jun 00:17:49 00:22:04 36° 287° (WNW) 00:26:21 437.425
Cosmos 2504 29 Jun 00:25:56 00:30:41 15° 67° (ENE) 00:35:20 435.465 / 435.565
NANOSAT C BR1 29 Jun 00:27:14 00:31:14 39° 99° (E) 00:35:13 145.865
Cosmos 2491 29 Jun 00:28:38 00:36:18 35° 86° (E) 00:43:56 435.465 / 435.565
QB50P1 29 Jun 00:30:18 00:34:24 45° 100° (E) 00:38:29 145.935-145.965
SO-50 29 Jun 00:30:48 00:33:14 14° 48° (NE) 00:35:38 436.795
CUBEBUG 1 29 Jun 00:33:03 00:37:23 67° 258° (WSW) 00:41:43 437.445
POPSAT HIP 1 29 Jun 00:33:30 00:37:39 49° 100° (E) 00:41:47 437.405
VELOX 1 29 Jun 00:41:49 00:46:10 57° 259° (W) 00:50:30 145.980
QB50P2 29 Jun 00:45:48 00:50:04 78° 100° (E) 00:54:21 145.880/145.840
DUCHIFAT 1 29 Jun 00:47:30 00:51:43 67° 101° (E) 00:55:57 145.980
POLYITAN 1 29 Jun 00:48:25 00:52:42 80° 101° (ESE) 00:57:00 437.675
50 SAT 29 Jun 00:55:15 00:58:27 28° 262° (W) 01:01:41 437.505
ANTELSAT 29 Jun 00:59:19 01:01:35 14° 293° (WNW) 01:03:52 437.575/2403.000
TISAT 1 29 Jun 01:06:45 01:10:03 23° 71° (ENE) 01:13:21 437.305
YUBILEINY 29 Jun 01:20:24 01:29:08 68° 268° (W) 01:37:52 435.215
UKube-1 29 Jun 01:21:43 01:25:31 30° 262° (W) 01:29:21 .
SPROUT 29 Jun 01:22:22 01:26:26 45° 260° (W) 01:30:31 437.525
ESTCUBE 1 29 Jun 01:22:32 01:24:29 13° 267° (W) 01:26:27 437.505/2401.250
AISAT 29 Jun 01:24:19 01:27:15 17° 265° (W) 01:30:12 437.250
PCSat 29 Jun 01:27:38 01:31:28 20° 105° (ESE) 01:35:20 145.827
BUGSAT 1 29 Jun 01:42:17 01:46:20 59° 284° (WNW) 01:50:24 437.445
SWISSCUBE 29 Jun 01:43:29 01:45:44 13° 66° (ENE) 01:47:58 437.505
DX 1 29 Jun 01:43:58 01:46:14 14° 266° (W) 01:48:30 434.975-435.025
Oscar 19 29 Jun 01:49:33 01:53:14 20° 95° (E) 01:56:54 437.125/150
JAS-2 29 Jun 02:00:54 02:06:24 80° 103° (ESE) 02:11:35 435.910
NANOSAT C BR1 29 Jun 02:04:24 02:06:35 14° 292° (WNW) 02:08:45 145.865
BEESAT 29 Jun 02:07:10 02:10:48 22° 69° (ENE) 02:14:25 436.000
QB50P1 29 Jun 02:08:05 02:09:44 12° 293° (WNW) 02:11:23 145.935-145.965
ITUPSAT 1 29 Jun 02:08:24 02:12:04 22° 69° (ENE) 02:15:44 437.325
SO-50 29 Jun 02:09:34 02:14:05 57° 245° (WSW) 02:18:26 436.795
BEESAT 3 29 Jun 02:10:10 02:13:25 26° 112° (ESE) 02:16:42 437.485
Gurwin Techsat 1B 29 Jun 02:10:24 02:12:41 13° 93° (E) 02:14:57 435.225
POPSAT HIP 1 29 Jun 02:11:39 02:12:57 11° 293° (WNW) 02:14:16 437.405
Cosmos 2504 29 Jun 02:16:19 02:25:14 90° 244° (WSW) 02:33:38 435.465 / 435.565
Cosmos 2491 29 Jun 02:24:43 02:32:52 42° 282° (WNW) 02:41:02 435.465 / 435.565
O/OREOS (USA 219) 29 Jun 02:24:52 02:28:32 25° 102° (ESE) 02:32:11 437.305
TISAT 1 29 Jun 02:42:24 02:45:35 21° 264° (W) 02:48:46 437.305
BEESAT 2 29 Jun 02:48:16 02:51:56 39° 114° (ESE) 02:55:39 435.950
PCSat 29 Jun 03:09:22 03:14:30 43° 300° (WNW) 03:19:39 145.827
SWISSCUBE 29 Jun 03:18:21 03:23:01 53° 260° (W) 03:27:42 437.505
Oscar 19 29 Jun 03:27:54 03:32:36 38° 289° (WNW) 03:37:18 437.125/150
BEESAT 29 Jun 03:44:10 03:48:21 31° 262° (W) 03:52:35 436.000
ITUPSAT 1 29 Jun 03:45:28 03:49:40 30° 262° (W) 03:53:55 437.325
Gurwin Techsat 1B 29 Jun 03:47:42 03:52:56 61° 286° (WNW) 03:58:09 435.225
BEESAT 3 29 Jun 03:48:09 03:51:03 20° 306° (NW) 03:53:58 437.485
ITAMSAT 1 29 Jun 03:51:01 03:56:04 47° 100° (E) 04:01:03 435.822/435.867
O/OREOS (USA 219) 29 Jun 04:04:13 04:07:48 23° 296° (WNW) 04:11:23 437.305
Cosmos 2504 29 Jun 04:13:08 04:17:12 14° 282° (WNW) 04:21:12 435.465 / 435.565
MOZHAYETS 4 29 Jun 04:18:50 04:23:21 57° 75° (ENE) 04:27:54
KKS-1 29 Jun 04:25:27 04:29:51 81° 76° (ENE) 04:34:17 437.445
BEESAT 2 29 Jun 04:27:43 04:29:55 14° 308° (NW) 04:32:09 435.950
AO-7 29 Jun 04:41:09 04:49:17 52° 102° (ESE) 04:57:20 29.400- 29.500
